Powrót do katalogu

CZ-6A DEB

AktywnyPO
NORAD 61828·DEBRIS·🇨🇳 China

Wystrzelony Aug 6, 2024 z Taiyuan Satellite Launch Center

Loading…

Następne Przeloty (najbliższe 24 godziny)

TLE

ŚwieżeSource: Space-Track

Epoka: Sep 14, 2026, 10:46 UTC

1 61828U 24140ACU 26257.44893510  .00001464  00000-0  79963-3 0  9994
2 61828  88.9706 264.5334 0122091 336.1480  23.4073 14.07873949103052

Śledź CZ-6A DEB w czasie rzeczywistym z AllMySat

Download on the App Store